Find Starlink 35484

NORAD ID: 65923 Int'l Des: 2025-225 Owner: SPXS Country: US Constellation: starlink operational
LEOCIRCULAR

当前视图

正在加载3D地球...

About Starlink 35484

Starlink 35484 (NORAD 65923) is a starlink constellation satellite (v2 mini) launched Oct 8, 2025 by SPXS of US. It operates in LEO, CIRCULAR orbit with a mass of 575.00 kg.

即将过境

Passes for default location (London). Set your location on the main map for personalized predictions.

高度历史

Loading altitude history...

两行轨道根数

1 65923U 25225P 26265.46158777 .00012838 00000-0 39043-3 0 9991
2 65923 53.1609 328.2226 0001133 128.4955 231.6149 15.34401016 54581
Epoch: Sep 22, 2026 • Age: 18 hours

当前状态

高度 472.2 km
远地点 / 近地点 N/A
速度 7.63 km/s
星下点 -31.16°S, 90.96°E
发射日期 Oct 8, 2025
运行时间 0.9 years
类型 internet

技术详情

分类 Payload
质量 575.00 kg
干质量 530.00 kg
长度 0.30 m
跨度 29.00 m
形状 ? Box + pan
制造商 SPXS
平台类型 Starlink V2MO
阶段状态 In Orbit
所有者/国家 SPXS/US

Most Searched